Hourly Data Report for July 17, 2017

TORONTO CITY
ONTARIO

43°40'00.000" N
79°24'00.000" W
112.50 m
6158355
71508
XTO

Download Data

Hourly Data (July 2017)
Hourly Data Report for July 17, 2017
TIME
LST
Temp Definition
°C
Dew Point Definition
°C
Rel Hum Definition
%
Precip. Amount Definition
mm

Wind Dir Definition
10's deg

Wind Spd Definition
km/h
Visibility Definition
km
Stn Press Definition
kPa
Hmdx Definition


Wind Chill Definition


Weather Definition


00:00 20.6 18.4 87 0.0 LegendMM LegendMM   100.09 27   LegendNANA
01:00 20.8 18.2 85 0.0 LegendMM LegendMM   100.08 27   LegendNANA
02:00 20.8 17.2 80 0.0 LegendMM LegendMM   100.04 26   LegendNANA
03:00 20.5 17.9 85 0.0 LegendMM LegendMM   100.04 26   LegendNANA
04:00 20.3 17.7 85 0.0 LegendMM LegendMM   100.05 26   LegendNANA
05:00 20.3 17.9 86 0.0 LegendMM LegendMM   100.08 26   LegendNANA
06:00 20.0 17.8 88 0.0 LegendMM LegendMM   100.11 26   LegendNANA
07:00 20.2 17.7 86 0.0 LegendMM LegendMM   100.17 26   LegendNANA
08:00 20.4 17.4 83 0.0 LegendMM LegendMM   100.24 26   LegendNANA
09:00 20.9 17.5 81 0.0 LegendMM LegendMM   100.23 27   LegendNANA
10:00 23.0 17.0 69 0.0 LegendMM LegendMM   100.23 28   LegendNANA
11:00 22.8 17.7 73 0.0 LegendMM LegendMM   100.25 29   LegendNANA
12:00 23.3 17.6 71 0.0 LegendMM LegendMM   100.24 29   LegendNANA
13:00 23.8 18.2 71 0.0 LegendMM LegendMM   100.24 30   LegendNANA
14:00 24.1 18.0 68 0.0 LegendMM LegendMM   100.21 30   LegendNANA
15:00 24.2 18.2 70 0.0 LegendMM LegendMM   100.20 30   LegendNANA
16:00 23.2 17.5 70 0.0 LegendMM LegendMM   100.23 29   LegendNANA
17:00 23.4 16.8 66 0.0 LegendMM LegendMM   100.23 29   LegendNANA
18:00 23.0 16.7 68 0.0 LegendMM LegendMM   100.24 28   LegendNANA
19:00 23.2 16.2 65 0.0 LegendMM LegendMM   100.27 28   LegendNANA
20:00 22.5 16.5 69 0.0 LegendMM LegendMM   100.29 27   LegendNANA
21:00 21.7 16.5 72 0.0 LegendMM LegendMM   100.31 27   LegendNANA
22:00 21.8 17.2 75 0.0 LegendMM LegendMM   100.32 27   LegendNANA
23:00 20.9 17.3 80 0.0 LegendMM LegendMM   100.33 26   LegendNANA

Notes on Data Quality.

Legend

  • E = Estimated
  • M = Missing
  • NA = Not Available*
  • [empty] = Indicates an unobserved value
Date modified: